GW2525 Weather Reports


time (UTC)temp
C
wind
direction
speed
KPH
gust
KPH
rain 1hr
cm
rain 24hr
cm
rain mn
cm
humidity
%
barometer
mb
20260510064003 13 249 9.7 29.0 0.00 1.50 0.08 83 1009.6
20260510063503 11 200 4.8 19.3 0.00 1.50 0.08 91 1009.7
20260510063004 11 137 3.2 8.0 0.00 1.50 0.08 93 1009.7
20260510062503 11 127 3.2 8.0 0.00 1.50 0.08 94 1009.6
20260510062004 11 92 1.6 8.0 0.00 1.50 0.08 95 1009.6
20260510061504 11 82 1.6 8.0 0.00 1.50 0.08 96 1009.6
20260510061003 11 86 0.0 3.2 0.00 1.50 0.08 96 1009.6
20260510060503 10 84 1.6 4.8 0.00 1.50 0.08 96 1009.6
20260510060004 10 39 1.6 8.0 0.00 1.50 0.08 97 1009.6
20260510055503 10 283 1.6 8.0 0.00 1.50 0.08 96 1009.6
20260510055213 10 278 1.6 8.0 0.00 1.50 0.08 96 1009.7
20260510054503 9 286 1.6 9.7 0.00 1.50 0.08 96 1009.7
20260510054004 9 20 3.2 9.7 0.00 1.50 0.08 96 1009.6
20260510053503 9 60 1.6 4.8 0.00 1.50 0.08 97 1009.7
20260510053004 9 60 1.6 3.2 0.00 1.50 0.08 96 1009.6
20260510052714 8 60 1.6 3.2 0.00 1.50 0.08 96 1009.7
20260510052212 8 59 1.6 4.8 0.00 1.50 0.08 96 1009.7
20260510051504 8 331 3.2 9.7 0.00 1.50 0.08 95 1009.6
20260510051214 8 272 3.2 9.7 0.00 1.50 0.08 95 1009.6
20260510050504 9 207 1.6 4.8 0.00 1.50 0.08 95 1009.5
20260510050005 9 209 1.6 4.8 0.00 1.50 0.08 95 1009.5
20260510045504 9 134 3.2 11.3 0.00 1.50 0.08 95 1009.4
20260510045215 9 111 4.8 11.3 0.00 1.50 0.08 95 1009.5
20260510044713 9 101 4.8 11.3 0.00 1.50 0.08 94 1009.4
20260510044215 9 103 3.2 11.3 0.00 1.50 0.08 94 1009.3
20260510043503 9 127 8.0 19.3 0.00 1.50 0.08 93 1009.3
20260510043004 10 118 8.0 19.3 0.00 1.50 0.08 93 1009.3
20260510042504 10 106 6.4 16.1 0.00 1.50 0.08 92 1009.3
20260510042005 10 95 6.4 16.1 0.00 1.50 0.08 91 1009.3
20260510041504 10 92 6.4 16.1 0.00 1.50 0.08 90 1009.2
20260510041214 10 121 6.4 14.5 0.00 1.50 0.08 90 1009.2
20260510040503 11 289 8.0 19.3 0.00 1.50 0.08 87 1009.3
20260510040004 10 289 6.4 19.3 0.00 1.50 0.08 91 1009.4
20260510035503 10 325 3.2 16.1 0.00 1.50 0.08 91 1009.4
20260510035003 10 285 1.6 9.7 0.00 1.50 0.08 90 1009.4
20260510034503 10 19 3.2 11.3 0.00 1.50 0.08 89 1009.4
20260510034003 11 5 4.8 12.9 0.00 1.50 0.08 87 1009.6
20260510033713 11 316 4.8 24.1 0.00 1.50 0.08 87 1009.6
20260510033004 11 314 8.0 24.1 0.00 1.50 0.08 88 1009.5
20260510032504 10 328 6.4 20.9 0.00 1.50 0.08 93 1009.6
20260510032004 10 18 4.8 12.9 0.00 1.50 0.08 94 1009.8
20260510031503 10 16 4.8 12.9 0.00 1.50 0.08 95 1009.7
20260510031004 10 341 3.2 6.4 0.00 1.50 0.08 94 1009.9
20260510030503 9 287 1.6 4.8 0.00 1.50 0.08 94 1009.9
20260510030214 10 288 1.6 4.8 0.00 1.50 0.08 93 1009.9
20260510025503 10 303 1.6 9.7 0.00 1.50 0.08 91 1009.9
20260510025003 11 268 4.8 19.3 0.00 1.50 0.08 90 1010.0
20260510024504 11 249 11.3 29.0 0.00 1.50 0.08 89 1010.0
20260510024003 12 252 19.3 41.8 0.00 1.50 0.08 88 1010.0
20260510023713 12 252 19.3 41.8 0.00 1.50 0.08 89 1010.0
20260510023004 11 275 16.1 30.6 0.00 1.50 0.08 96 1010.0
20260510022504 10 289 8.0 29.0 0.00 1.50 0.08 99 1009.9
20260510022214 10 273 4.8 19.3 0.00 1.50 0.08 99 1009.9
20260510021503 8 289 6.4 20.9 0.00 1.50 0.08 98 1010.0
20260510021004 8 9 3.2 11.3 0.00 1.50 0.08 98 1010.2
20260510020714 8 327 3.2 8.0 0.00 1.50 0.08 98 1010.2
20260510020004 8 261 3.2 11.3 0.00 1.50 0.08 98 1010.3
20260510015503 8 254 0.0 11.3 0.00 1.50 0.08 98 1010.3
20260510015003 8 187 1.6 4.8 0.00 1.50 0.08 97 1010.0
20260510014714 8 145 1.6 4.8 0.00 1.50 0.08 98 1010.1
20260510014003 8 103 1.6 3.2 0.00 1.50 0.08 98 1010.3
20260510013503 8 101 1.6 3.2 0.00 1.50 0.08 98 1010.3
20260510013004 8 112 1.6 4.8 0.00 1.50 0.08 98 1010.3
20260510012503 8 124 1.6 4.8 0.00 1.50 0.08 98 1010.3
20260510012003 9 117 1.6 6.4 0.00 1.50 0.08 98 1010.4
20260510011503 9 219 1.6 6.4 0.00 1.50 0.08 98 1010.6
20260510011213 9 271 1.6 6.4 0.00 1.50 0.08 98 1010.7
20260510010504 9 257 1.6 3.2 0.00 1.50 0.08 97 1010.7
20260510010004 9 257 1.6 3.2 0.00 1.50 0.08 98 1010.7
20260510005503 9 257 1.6 3.2 0.00 1.50 0.08 97 1010.7
20260510005003 9 268 3.2 6.4 0.00 1.50 0.08 97 1010.7
20260510004503 10 289 1.6 6.4 0.00 1.50 0.08 97 1010.8
20260510004003 10 307 1.6 4.8 0.00 1.50 0.08 98 1010.9
20260510003503 10 309 0.0 4.8 0.00 1.50 0.08 97 1011.0
20260510003004 10 315 0.0 3.2 0.00 1.50 0.08 97 1011.2
20260510002503 10 315 0.0 3.2 0.00 1.50 0.08 97 1011.2
20260510002003 10 316 1.6 3.2 0.03 1.50 0.08 97 1011.3
20260510001714 10 316 1.6 3.2 0.03 1.50 0.08 97 1011.3
20260510001213 10 317 0.0 3.2 0.03 1.50 0.08 97 1011.4
20260510000504 10 317 0.0 1.6 0.03 1.50 0.08 97 1011.4
20260510000004 10 317 0.0 1.6 0.03 1.50 0.08 97 1011.5
20260509235503 10 317 0.0 1.6 0.03 1.50 0.08 97 1011.6
20260509235003 10 317 0.0 1.6 0.03 1.50 0.08 97 1011.6
20260509234504 10 315 0.0 4.8 0.03 1.50 0.08 98 1011.8
20260509234003 10 317 1.6 6.4 0.03 1.50 0.08 97 1011.9
20260509233503 10 322 1.6 6.4 0.03 1.50 0.08 97 1011.9
20260509233004 11 325 0.0 4.8 0.03 1.50 0.08 97 1012.0
20260509232503 11 325 0.0 4.8 0.05 1.50 0.08 97 1012.2
20260509232004 11 310 0.0 4.8 0.03 1.47 0.05 97 1012.3
20260509231503 11 293 0.0 3.2 0.03 1.47 0.05 97 1012.3
20260509231003 11 293 1.6 6.4 0.03 1.47 0.05 98 1012.3
20260509230503 11 292 1.6 6.4 0.05 1.47 0.05 97 1012.3
20260509230004 11 292 1.6 6.4 0.05 1.47 0.05 98 1012.4
20260509225503 11 292 3.2 6.4 0.05 1.47 0.05 97 1012.4
20260509225003 11 294 1.6 6.4 0.08 1.47 0.05 97 1012.5
20260509224503 11 296 1.6 4.8 0.08 1.47 0.05 97 1012.5
20260509224004 11 296 1.6 3.2 0.08 1.47 0.05 97 1012.5
20260509223503 11 299 1.6 6.4 0.08 1.47 0.05 97 1012.5
20260509223004 11 308 1.6 6.4 0.08 1.47 0.05 97 1012.6
20260509222503 11 321 0.0 1.6 0.05 1.45 0.05 97 1012.6
20260509222004 11 302 0.0 3.2 0.05 1.45 0.05 97 1012.5
20260509221504 11 289 1.6 4.8 0.05 1.45 0.05 97 1012.4
20260509221003 11 284 3.2 6.4 0.05 1.45 0.05 97 1012.4
20260509220503 11 292 3.2 6.4 0.05 1.45 0.03 97 1012.4
20260509220006 11 309 0.0 6.4 0.03 1.42 0.00 97 1012.4
20260509215713 11 328 0.0 3.2 0.03 1.42 1.42 97 1012.3
20260509215003 11 0 0.0 0.0 0.00 1.40 1.40 97 1012.3
20260509214504 11 0 0.0 0.0 0.00 1.40 1.40 97 1012.3
20260509214004 11 0 0.0 0.0 0.00 1.40 1.40 97 1012.2
20260509213503 11 0 0.0 0.0 0.00 1.40 1.40 97 1012.2
20260509213003 11 32 0.0 1.6 0.00 1.40 1.40 97 1012.1
20260509212503 11 32 0.0 1.6 0.00 1.40 1.40 97 1012.0
20260509212003 11 32 0.0 1.6 0.00 1.40 1.40 97 1012.0
20260509211503 11 32 0.0 1.6 0.00 1.40 1.40 97 1012.0
20260509211003 11 33 1.6 4.8 0.00 1.40 1.40 97 1011.9
20260509210503 11 24 3.2 6.4 0.03 1.40 1.40 97 1011.9
20260509210004 11 19 3.2 6.4 0.03 1.40 1.40 97 1011.8
20260509205503 11 8 1.6 6.4 0.05 1.40 1.40 97 1011.8
20260509205003 11 358 1.6 4.8 0.05 1.40 1.40 97 1011.8
20260509204504 11 23 1.6 4.8 0.05 1.40 1.40 97 1011.7
20260509204213 11 296 1.6 8.0 0.05 1.40 1.40 97 1011.8
20260509203503 11 276 1.6 8.0 0.05 1.40 1.40 97 1011.6
20260509203004 11 283 0.0 4.8 0.05 1.40 1.40 97 1011.4
20260509202503 11 285 1.6 4.8 0.08 1.40 1.40 97 1011.3
20260509202004 11 284 1.6 4.8 0.08 1.40 1.40 97 1011.3
20260509201503 11 282 1.6 4.8 0.08 1.40 1.40 97 1011.2
20260509201003 11 281 1.6 4.8 0.08 1.40 1.40 97 1011.1
20260509200714 11 280 1.6 4.8 0.08 1.37 1.37 97 1011.0
20260509200004 11 280 3.2 4.8 0.08 1.37 1.37 97 1011.0
20260509195503 11 280 1.6 4.8 0.05 1.37 1.37 97 1011.0
20260509195213 11 280 1.6 4.8 0.05 1.37 1.37 97 1010.9
20260509194504 11 280 0.0 1.6 0.08 1.37 1.37 97 1010.9
20260509194003 11 280 0.0 1.6 0.05 1.35 1.35 97 1010.8
20260509193714 11 280 0.0 1.6 0.08 1.35 1.35 97 1010.8
20260509193215 11 282 0.0 3.2 0.10 1.35 1.35 97 1010.7
20260509192714 11 283 0.0 3.2 0.10 1.32 1.35 97 1010.5
20260509192213 11 286 0.0 1.6 0.13 1.32 1.32 97 1010.4
20260509191504 11 286 1.6 6.4 0.15 1.32 1.32 97 1010.2
20260509191213 11 286 1.6 6.4 0.20 1.32 1.32 97 1010.1
20260509190503 11 286 3.2 6.4 0.25 1.30 1.30 97 1009.9
20260509190004 11 288 3.2 6.4 0.33 1.30 1.30 97 1009.9
20260509185503 11 290 4.8 8.0 0.41 1.30 1.30 97 1009.8
20260509185003 11 289 4.8 8.0 0.43 1.27 1.27 97 1009.8
20260509184504 11 286 6.4 9.7 0.48 1.27 1.27 96 1009.9
20260509184003 11 271 4.8 9.7 0.53 1.27 1.27 96 1009.9
20260509183503 11 241 3.2 8.0 0.53 1.27 1.27 96 1009.9
20260509183004 12 227 3.2 4.8 0.56 1.24 1.24 96 1010.1
20260509182714 12 226 3.2 4.8 0.56 1.22 1.24 96 1010.0
20260509182004 12 223 1.6 4.8 0.61 1.19 1.19 96 1010.3
20260509181503 12 221 0.0 4.8 0.61 1.17 1.17 96 1010.3
20260509181215 12 0 0.0 0.0 0.58 1.12 1.12 96 1010.4
20260509180503 12 0 0.0 0.0 0.58 1.04 1.04 96 1010.6
20260509180004 12 0 0.0 0.0 0.58 0.97 0.97 95 1010.8
20260509175503 12 0 0.0 0.0 0.58 0.89 0.89 95 1010.9
20260509175003 12 122 0.0 1.6 0.61 0.86 0.86 95 1010.9
20260509174503 12 122 0.0 1.6 0.61 0.79 0.79 95 1010.9
20260509174003 12 122 1.6 3.2 0.61 0.74 0.74 95 1010.9
20260509173503 12 122 3.2 6.4 0.61 0.71 0.71 95 1011.0
20260509173214 12 120 3.2 6.4 0.61 0.69 0.69 95 1011.0
20260509172503 12 109 1.6 6.4 0.61 0.64 0.64 95 1011.1
20260509172003 12 105 1.6 4.8 0.56 0.61 0.61 95 1011.2
20260509171503 12 105 0.0 3.2 0.51 0.56 0.56 95 1011.2
20260509171214 12 105 0.0 1.6 0.51 0.53 0.53 95 1011.1
20260509170713 12 105 0.0 4.8 0.43 0.48 0.51 95 1011.1
20260509170004 12 105 1.6 4.8 0.33 0.38 0.38 94 1011.3
20260509165503 13 99 3.2 9.7 0.30 0.33 0.33 95 1011.4
20260509165003 13 84 1.6 9.7 0.23 0.25 0.25 94 1011.5
20260509164504 13 331 0.0 3.2 0.15 0.18 0.18 94 1011.5
20260509164003 13 323 1.6 3.2 0.15 0.15 0.15 94 1011.4
20260509163503 13 324 1.6 3.2 0.10 0.10 0.10 94 1011.4
20260509163004 13 325 0.0 1.6 0.08 0.08 0.08 94 1011.4
20260509162503 13 306 1.6 6.4 0.05 0.05 0.05 94 1011.1
20260509162004 13 295 4.8 9.7 0.05 0.05 0.05 94 1011.0
20260509161503 13 274 4.8 11.3 0.05 0.05 0.05 93 1010.6
20260509161003 13 216 3.2 11.3 0.05 0.05 0.05 93 1010.4
20260509160504 13 132 1.6 4.8 0.05 0.05 0.05 92 1010.4
20260509160004 13 103 0.0 1.6 0.05 0.05 0.05 92 1010.3
20260509155503 13 103 0.0 1.6 0.03 0.03 0.03 91 1010.1
20260509155004 13 103 0.0 1.6 0.03 0.03 0.03 91 1010.0
20260509154712 13 103 0.0 1.6 0.03 0.03 0.03 90 1010.1
20260509154003 13 103 0.0 3.2 0.00 0.00 0.00 90 1010.1
20260509153503 13 103 0.0 3.2 0.00 0.00 0.00 89 1010.4
20260509153004 13 103 0.0 1.6 0.00 0.00 0.00 89 1010.1
20260509152503 13 103 1.6 3.2 0.00 0.00 0.00 89 1010.2
20260509152003 13 103 1.6 3.2 0.00 0.00 0.00 89 1010.2
20260509151503 13 103 1.6 4.8 0.00 0.00 0.00 88 1010.4
20260509151003 13 104 3.2 9.7 0.00 0.00 0.00 88 1010.6
20260509150503 14 104 4.8 9.7 0.00 0.00 0.00 88 1010.9
20260509150004 14 110 4.8 9.7 0.00 0.00 0.00 86 1011.2
20260509145503 14 117 4.8 9.7 0.00 0.00 0.00 84 1011.4
20260509145003 14 115 4.8 9.7 0.00 0.00 0.00 83 1011.4
20260509144503 14 107 3.2 9.7 0.00 0.00 0.00 82 1011.5
20260509144004 14 95 1.6 6.4 0.00 0.00 0.00 82 1011.4
20260509143503 15 94 1.6 6.4 0.00 0.00 0.00 83 1011.3
20260509143004 14 94 3.2 6.4 0.00 0.00 0.00 81 1011.4
20260509142503 14 98 3.2 6.4 0.00 0.00 0.00 81 1011.5
20260509142003 14 105 3.2 6.4 0.00 0.00 0.00 83 1011.6
20260509141503 14 110 3.2 6.4 0.00 0.00 0.00 82 1011.6
20260509141004 14 114 3.2 6.4 0.00 0.00 0.00 83 1011.8
20260509140503 14 117 3.2 6.4 0.00 0.00 0.00 84 1011.9
20260509140005 14 118 1.6 4.8 0.00 0.00 0.00 85 1011.7
20260509135504 14 118 0.0 1.6 0.00 0.00 0.00 87 1011.7
20260509135003 14 118 0.0 1.6 0.00 0.00 0.00 89 1011.6
20260509134503 13 118 1.6 6.4 0.00 0.00 0.00 90 1011.6
20260509134003 13 123 3.2 6.4 0.00 0.00 0.00 91 1011.6
20260509133503 13 126 4.8 11.3 0.00 0.00 0.00 91 1011.7
20260509133215 13 123 4.8 11.3 0.00 0.00 0.00 91 1011.8
20260509132504 13 103 4.8 11.3 0.00 0.00 0.00 92 1011.8
20260509132003 13 108 3.2 11.3 0.00 0.00 0.00 91 1011.8
20260509131714 13 118 3.2 11.3 0.00 0.00 0.00 92 1011.8
20260509131213 13 117 1.6 4.8 0.00 0.00 0.00 92 1011.5
20260509130503 13 106 3.2 11.3 0.00 0.00 0.00 92 1011.7
20260509130004 13 116 6.4 16.1 0.00 0.00 0.00 91 1012.0
20260509125503 13 125 11.3 17.7 0.00 0.00 0.00 91 1012.1
20260509125213 13 125 11.3 20.9 0.00 0.00 0.00 90 1012.2
20260509124503 13 119 14.5 25.7 0.00 0.00 0.00 88 1012.3
20260509124214 14 114 12.9 25.7 0.00 0.00 0.00 86 1012.2
20260509123503 15 101 3.2 11.3 0.00 0.00 0.00 84 1012.1
20260509123004 15 98 1.6 4.8 0.00 0.00 0.00 84 1012.2
20260509122713 15 99 1.6 6.4 0.00 0.00 0.00 84 1012.3
20260509122003 15 99 4.8 11.3 0.00 0.00 0.00 84 1012.4
20260509121503 15 100 6.4 11.3 0.00 0.00 0.00 85 1012.4
20260509121003 15 104 4.8 11.3 0.00 0.00 0.00 84 1012.5
20260509120503 15 111 4.8 9.7 0.00 0.00 0.00 84 1012.5
20260509120004 15 122 4.8 11.3 0.00 0.00 0.00 83 1012.6
20260509115713 15 133 4.8 11.3 0.00 0.00 0.00 82 1012.7
20260509115003 15 151 4.8 11.3 0.00 0.00 0.00 81 1012.9
20260509114503 15 156 1.6 8.0 0.00 0.00 0.00 81 1012.8
20260509114214 15 157 0.0 8.0 0.00 0.00 0.00 81 1012.8
20260509113713 15 144 0.0 3.2 0.00 0.00 0.00 81 1012.6
20260509113004 15 144 1.6 4.8 0.00 0.00 0.00 81 1012.7
20260509112504 15 144 1.6 4.8 0.00 0.00 0.00 80 1012.8
20260509112214 15 144 1.6 4.8 0.00 0.00 0.00 80 1012.8
20260509111503 15 144 1.6 4.8 0.00 0.00 0.00 81 1012.8
20260509111004 15 144 1.6 4.8 0.00 0.00 0.00 81 1012.8
20260509110503 15 158 1.6 4.8 0.00 0.00 0.00 81 1012.9
20260509110005 15 180 1.6 4.8 0.00 0.00 0.00 81 1012.9
20260509105503 15 183 3.2 6.4 0.00 0.00 0.00 81 1012.9
20260509105003 15 188 3.2 6.4 0.00 0.00 0.00 81 1013.0
20260509104713 15 190 1.6 6.4 0.00 0.00 0.00 81 1012.9
20260509104004 15 192 1.6 4.8 0.00 0.00 0.00 81 1012.9
20260509103714 15 192 1.6 4.8 0.00 0.00 0.00 80 1013.0
20260509103004 15 0 0.0 0.0 0.00 0.00 0.00 80 1013.2
20260509102504 15 0 0.0 0.0 0.00 0.00 0.00 80 1013.2
20260509102003 15 0 0.0 0.0 0.00 0.00 0.00 80 1013.1
20260509101504 15 0 0.0 0.0 0.00 0.00 0.00 81 1013.1
20260509101003 15 0 0.0 0.0 0.00 0.00 0.00 81 1013.0
20260509100714 15 277 0.0 1.6 0.00 0.00 0.00 81 1013.0
20260509100005 15 277 1.6 6.4 0.00 0.00 0.00 82 1013.0
20260509095503 14 271 4.8 9.7 0.00 0.00 0.00 82 1012.9
20260509095213 14 266 4.8 11.3 0.00 0.00 0.00 82 1012.9
20260509094503 14 251 4.8 11.3 0.00 0.00 0.00 81 1012.8
20260509094004 14 253 6.4 11.3 0.00 0.00 0.00 81 1012.7
20260509093503 14 266 6.4 14.5 0.00 0.00 0.00 82 1012.7
20260509093004 14 278 6.4 14.5 0.00 0.00 0.00 82 1012.5
20260509092503 14 279 6.4 12.9 0.00 0.00 0.00 83 1012.5
20260509092003 14 266 6.4 12.9 0.00 0.00 0.00 83 1012.6
20260509091503 14 238 3.2 12.9 0.00 0.00 0.00 82 1012.7
20260509091003 15 168 1.6 6.4 0.00 0.00 0.00 83 1012.7
20260509090504 14 170 1.6 6.4 0.00 0.00 0.00 82 1012.7
20260509090004 15 173 0.0 6.4 0.00 0.00 0.00 82 1012.6
20260509085503 15 0 0.0 0.0 0.00 0.00 0.00 82 1012.5
20260509085004 15 0 0.0 0.0 0.00 0.00 0.00 81 1012.5
20260509084503 15 217 0.0 3.2 0.00 0.00 0.00 81 1012.4
20260509084003 15 225 1.6 3.2 0.00 0.00 0.00 81 1012.5
20260509083504 15 228 3.2 8.0 0.00 0.00 0.00 81 1012.5
20260509083004 14 239 4.8 8.0 0.00 0.00 0.00 81 1012.5
20260509082714 14 239 3.2 8.0 0.00 0.00 0.00 82 1012.6
20260509082213 14 247 3.2 6.4 0.00 0.00 0.00 84 1012.6
20260509081503 14 275 1.6 4.8 0.00 0.00 0.00 84 1012.7
20260509081004 13 289 1.6 6.4 0.00 0.00 0.00 84 1012.9
20260509080503 13 269 3.2 8.0 0.00 0.00 0.00 84 1013.0
20260509080004 13 259 4.8 11.3 0.00 0.00 0.00 85 1013.0
20260509075504 13 266 4.8 11.3 0.00 0.00 0.00 86 1012.9
20260509075004 13 284 3.2 9.7 0.00 0.00 0.00 88 1012.9
20260509074503 13 285 3.2 6.4 0.00 0.00 0.00 89 1012.9
20260509074003 13 279 4.8 9.7 0.00 0.00 0.00 89 1012.8
20260509073713 13 276 4.8 9.7 0.00 0.00 0.00 90 1012.9
20260509073214 12 273 3.2 9.7 0.00 0.00 0.00 92 1012.9
20260509072503 12 272 3.2 4.8 0.00 0.00 0.00 94 1013.0
20260509072003 12 263 3.2 4.8 0.00 0.00 0.00 95 1013.0
20260509071504 11 262 3.2 4.8 0.00 0.00 0.00 96 1013.1
20260509071003 11 261 3.2 4.8 0.00 0.00 0.00 97 1013.1
20260509070503 11 261 3.2 4.8 0.00 0.00 0.00 97 1013.2
20260509070004 11 265 1.6 4.8 0.00 0.00 0.00 97 1013.2
20260509065504 11 277 0.0 4.8 0.00 0.00 0.00 97 1013.2
20260509065003 10 277 0.0 1.6 0.00 0.00 0.00 97 1013.3
20260509064503 10 277 1.6 4.8 0.00 0.00 0.00 97 1013.3